Location: Dal�� Lhota
(48.7500°N, 14.0167°E)
Time: 09:09:12
(UTC+00:00)

Explorer 7 - Pass Details

Date: 07 August 2021
Orbit: 484 x 676 km, 50.3° (Epoch: 21 September)

Event Time Altitude Azimuth Distance (km) Brightness Sun altitude
Rises 07:22:09 0° 287° (WNW) 2,624 9.8 33.8°
Reaches altitude 10° 07:24:24 10° 279° (W) 1,761 9.0 34.2°
Maximum altitude 07:28:05 36° 212° (SSW) 863 8.0 34.8°
Drops below altitude 10° 07:31:58 10° 145° (SE) 1,857 10.3 35.4°
Sets 07:34:25 0° 137° (SE) 2,789 11.2 35.8°
